Date String (YYYY-MM-DD hh:mm:ss) UTC,Instrument flags,absolute air pressure of the measurement (hPa),sample flow rate (lpm),inlet stack bypass flow (lpm),air temperature of the measurement (°C),ambient temperature measured by the external sensor (°C),aerosol sample conditioner tube jacket temperature (°C),OPC LED temperature (°C),internal box temperature (°C),relative humidity of the measurement (%),span deviation,mass concentration of particles derived from Lorenz-Mie calculation of OPC scattering (μg/m³),mass concentration of particles derived from Lorenz-Mie calculation of OPC scattering (μg/m³),mass concentration of particles derived from Lorenz-Mie calculation of OPC scattering (μg/m³)
DateTimeUTC,F1_M11,P_M11,Q1_M11,Q2_M11,T1_M11,T2_M11,T3_M11,T4_M11,T5_M11,U1_M11,ZSPAN_M11,X2_M11,X0_M11,X1_M11
2023-08-21 07:00:00,SystemResetWarning,0834.2,4.99,000.00,028.3,027.3,000.0,036.6,030.1,18.2,0001.2,0007.22,0017.25,0006.09
2023-08-21 07:01:00,SystemResetWarning,0834.2,4.99,000.00,028.3,025.9,000.0,036.6,029.9,17.9,0001.2,0007.21,0017.48,0006.06
2023-08-21 07:02:00,SystemResetWarning,0834.1,5.00,000.00,028.2,024.1,000.0,036.4,029.5,18.0,0001.0,0007.18,0017.10,0006.02
2023-08-21 07:03:00,SystemResetWarning,0834.1,5.00,000.00,028.1,023.6,000.0,036.4,029.4,18.1,0001.0,0007.13,0016.80,0005.99
2023-08-21 07:04:00,SystemResetWarning,0834.1,5.01,000.00,028.0,023.8,000.0,036.4,029.1,18.2,0000.8,0007.06,0015.99,0005.95
2023-08-21 07:05:00,SystemResetWarning,0834.1,5.01,000.00,027.9,024.2,000.0,036.4,029.2,18.1,0000.5,0007.00,0015.72,0005.92
2023-08-21 07:06:00,SystemResetWarning,0834.1,5.00,000.00,027.9,024.7,000.0,036.4,029.3,18.0,0000.3,0006.93,0015.68,0005.88
2023-08-21 07:07:00,SystemResetWarning,0834.1,5.00,000.00,027.9,025.2,000.0,036.4,029.4,17.8,0000.7,0006.89,0015.61,0005.86
2023-08-21 07:08:00,SystemResetWarning,0834.1,5.00,000.00,027.9,025.5,000.0,036.4,029.5,17.7,0001.0,0006.85,0015.49,0005.84
2023-08-21 07:09:00,SystemResetWarning,0834.1,5.00,000.00,027.9,025.9,000.0,036.4,029.6,17.5,0000.9,0006.80,0015.32,0005.81
2023-08-21 07:10:00,SystemResetWarning,0834.2,4.99,000.00,028.0,026.2,000.0,036.5,029.7,17.6,0001.2,0006.77,0015.11,0005.80
2023-08-21 07:11:00,SystemResetWarning,0834.2,5.00,000.00,028.0,026.4,000.0,036.5,029.7,17.6,0001.0,0006.74,0015.10,0005.80
2023-08-21 07:12:00,SystemResetWarning,0834.2,5.00,000.00,028.0,026.6,000.0,036.5,029.8,17.8,0000.8,0006.76,0015.33,0005.80
2023-08-21 07:13:00,SystemResetWarning,0834.2,5.00,000.00,028.1,026.8,000.0,036.5,029.9,18.0,0000.8,0006.72,0015.30,0005.78
2023-08-21 07:14:00,SystemResetWarning,0834.2,5.01,000.00,028.1,026.9,000.0,036.5,029.9,18.5,0001.1,0006.71,0015.60,0005.74
2023-08-21 07:15:00,SystemResetWarning,0834.2,5.00,000.00,028.2,027.0,000.0,036.6,029.9,18.5,0001.1,0006.79,0015.54,0005.73
2023-08-21 07:16:00,SystemResetWarning,0834.3,4.99,000.00,028.2,027.1,000.0,036.6,030.0,18.6,0001.6,0006.79,0015.46,0005.71
2023-08-21 07:17:00,SystemResetWarning,0834.2,4.99,000.00,028.3,027.2,000.0,036.6,030.0,18.3,0001.8,0006.79,0015.92,0005.68
2023-08-21 07:18:00,SystemResetWarning,0834.3,4.99,000.00,028.3,027.3,000.0,036.7,030.1,18.8,0001.7,0006.74,0015.17,0005.65
2023-08-21 07:19:00,SystemResetWarning,0834.4,5.00,000.00,028.4,027.4,000.0,036.7,030.1,19.2,0001.7,0006.73,0015.09,0005.63
2023-08-21 07:20:00,SystemResetWarning,0834.4,4.99,000.00,028.4,026.3,000.0,036.6,030.0,19.0,0001.6,0006.79,0015.43,0005.65
2023-08-21 07:21:00,SystemResetWarning,0834.2,5.00,000.00,028.3,024.4,000.0,036.5,029.6,18.9,0001.8,0006.77,0015.51,0005.61
2023-08-21 07:22:00,SystemResetWarning,0834.2,5.00,000.00,028.2,023.6,000.0,036.4,029.4,18.9,0001.7,0006.74,0015.51,0005.54
2023-08-21 07:23:00,SystemResetWarning,0834.2,5.01,000.00,028.0,023.7,000.0,036.4,029.3,18.5,0001.8,0006.71,0015.51,0005.51
2023-08-21 07:24:00,SystemResetWarning,0834.2,5.01,000.00,027.9,024.1,000.0,036.4,029.2,18.1,0002.1,0006.68,0014.95,0005.49
2023-08-21 07:25:00,SystemResetWarning,0834.2,4.99,000.00,027.9,024.6,000.0,036.5,029.3,18.1,0001.9,0006.66,0014.26,0005.46
2023-08-21 07:26:00,SystemResetWarning,0834.2,4.99,000.00,027.9,025.1,000.0,036.5,029.4,18.0,0002.0,0006.58,0014.10,0005.41
2023-08-21 07:27:00,SystemResetWarning,0834.2,5.00,000.00,027.9,025.5,000.0,036.5,029.5,17.6,0001.9,0006.50,0013.97,0005.36
2023-08-21 07:28:00,SystemResetWarning,0834.2,5.01,000.00,027.9,025.8,000.0,036.5,029.6,17.6,0001.8,0006.42,0013.18,0005.32
2023-08-21 07:29:00,SystemResetWarning,0834.1,5.01,000.00,028.0,026.1,000.0,036.5,029.7,17.6,0001.8,0006.36,0012.89,0005.27
2023-08-21 07:30:00,SystemResetWarning,0834.1,4.99,000.00,028.0,026.3,000.0,036.5,029.7,18.0,0002.3,0006.35,0012.68,0005.24
2023-08-21 07:31:00,SystemResetWarning,0834.1,5.01,000.00,028.0,026.5,000.0,036.5,029.8,17.5,0002.2,0006.27,0012.15,0005.17
2023-08-21 07:32:00,SystemResetWarning,0834.2,4.99,000.00,028.1,026.7,000.0,036.5,029.8,17.6,0002.4,0006.19,0012.26,0005.12
2023-08-21 07:33:00,SystemResetWarning,0834.1,4.99,000.00,028.1,026.8,000.0,036.5,029.9,17.3,0002.6,0006.15,0012.15,0005.09
2023-08-21 07:34:00,SystemResetWarning,0834.1,5.00,000.00,028.2,027.0,000.0,036.6,029.9,17.1,0002.7,0006.07,0011.60,0005.05
2023-08-21 07:35:00,SystemResetWarning,0834.1,5.01,000.00,028.2,027.1,000.0,036.6,030.0,17.0,0002.7,0006.02,0011.65,0005.00
2023-08-21 07:36:00,SystemResetWarning,0834.1,5.01,000.00,028.2,027.2,000.0,036.6,030.0,16.7,0002.6,0005.99,0011.70,0004.96
2023-08-21 07:37:00,SystemResetWarning,0834.1,5.00,000.00,028.3,027.2,000.0,036.7,030.0,16.8,0002.3,0005.90,0011.89,0004.93
2023-08-21 07:38:00,SystemResetWarning,0834.1,4.99,000.00,028.3,027.3,000.0,036.7,030.1,16.7,0001.8,0005.87,0012.00,0004.88
2023-08-21 07:39:00,SystemResetWarning,0834.1,5.00,000.00,028.4,027.4,000.0,036.7,030.1,16.3,0002.1,0005.81,0012.05,0004.81
2023-08-21 07:40:00,SystemResetWarning,0834.1,5.00,000.00,028.4,026.8,000.0,036.7,030.1,16.1,0001.8,0005.78,0012.10,0004.75
2023-08-21 07:41:00,SystemResetWarning,0834.1,5.00,000.00,028.3,025.0,000.0,036.6,029.7,16.1,0001.4,0005.69,0011.92,0004.70
2023-08-21 07:42:00,SystemResetWarning,0834.1,5.00,000.00,028.3,024.4,000.0,036.5,029.6,16.4,0001.2,0005.66,0011.95,0004.67
2023-08-21 07:43:00,SystemResetWarning,0834.0,5.01,000.00,028.1,024.6,000.0,036.5,029.4,16.4,0000.6,0005.65,0011.92,0004.65
2023-08-21 07:44:00,SystemResetWarning,0834.1,5.01,000.00,028.1,024.9,000.0,036.6,029.5,16.5,0000.4,0005.61,0011.82,0004.65
2023-08-21 07:45:00,SystemResetWarning,0834.1,5.00,000.00,028.1,025.3,000.0,036.6,029.6,16.5,0000.3,0005.58,0012.15,0004.64
2023-08-21 07:46:00,SystemResetWarning,0834.1,5.00,000.00,028.1,025.7,000.0,036.6,029.7,16.6,0000.2,0005.53,0011.76,0004.62
2023-08-21 07:47:00,SystemResetWarning,0834.1,5.00,000.00,028.1,026.0,000.0,036.6,029.7,16.8,0000.5,0005.44,0011.54,0004.58
2023-08-21 07:48:00,SystemResetWarning,0834.1,5.00,000.00,028.1,026.2,000.0,036.6,029.8,16.9,0000.9,0005.41,0011.12,0004.56
2023-08-21 07:49:00,SystemResetWarning,0834.1,5.00,000.00,028.2,026.5,000.0,036.6,029.9,17.2,0001.0,0005.42,0011.27,0004.59
2023-08-21 07:50:00,SystemResetWarning,0834.1,5.00,000.00,028.2,026.7,000.0,036.7,029.9,17.4,0000.9,0005.48,0011.39,0004.64
2023-08-21 07:51:00,SystemResetWarning,0834.1,5.00,000.00,028.2,026.8,000.0,036.7,030.0,17.8,0001.3,0005.55,0011.44,0004.68
2023-08-21 07:52:00,SystemResetWarning,0834.1,4.99,000.00,028.3,027.0,000.0,036.7,030.0,17.7,0001.4,0005.59,0011.59,0004.70
2023-08-21 07:53:00,SystemResetWarning,0834.1,4.99,000.00,028.3,027.1,000.0,036.7,030.1,17.5,0001.6,0005.57,0012.27,0004.70
2023-08-21 07:54:00,SystemResetWarning,0834.1,5.00,000.00,028.4,027.2,000.0,036.7,030.1,17.1,0001.9,0005.52,0012.49,0004.66
2023-08-21 07:55:00,SystemResetWarning,0834.1,5.00,000.00,028.4,027.3,000.0,036.8,030.2,17.0,0002.0,0005.46,0012.62,0004.61
2023-08-21 07:56:00,SystemResetWarning,0834.1,5.01,000.00,028.4,027.3,000.0,036.8,030.2,17.1,0002.3,0005.40,0012.54,0004.55
2023-08-21 07:57:00,SystemResetWarning,0834.1,4.99,000.00,028.4,025.9,000.0,036.7,030.0,17.2,0002.2,0005.35,0012.49,0004.48
2023-08-21 07:58:00,SystemResetWarning,0834.0,5.00,000.00,028.4,024.6,000.0,036.6,029.7,17.2,0002.1,0005.32,0012.72,0004.45
2023-08-21 07:59:00,SystemResetWarning,0834.0,5.01,000.00,028.3,024.4,000.0,036.6,029.6,17.1,0002.4,0005.29,0013.53,0004.39
